Date String (YYYY-MM-DD hh:mm:ss) UTC,Instrument flags,Ambient pressure (hPa),Sample flow (lpm),Bypass flow (lpm),Sample temperature (°C),Ambient temperature (°C),ASC tube jacket temperature (°C),LED temperature (°C),Box temperature (°C),Sample RH (%),Span deviation,Mass concentration (μg/m³),Mass concentration (μg/m³),Mass concentration (μg/m³)
DateTimeUTC,F1_M11,P_M11,Q1_M11,Q2_M11,T1_M11,T2_M11,T3_M11,T4_M11,T5_M11,U1_M11,ZSPAN_M11,X2_M11,X0_M11,X1_M11
2023-02-16 14:00:00,,0826.9,5.00,0.00,22.3,20.3,00.0,31.2,23.7,06.2,0000.0,0004.41,0007.49,0004.24
2023-02-16 14:01:00,,0826.9,4.99,0.00,22.2,20.5,00.0,31.2,23.7,06.2,0000.0,0004.37,0007.43,0004.22
2023-02-16 14:02:00,,0826.8,4.99,0.00,22.3,21.6,00.0,31.1,24.0,06.2,0000.0,0004.36,0007.43,0004.19
2023-02-16 14:03:00,,0826.9,5.02,0.00,22.4,22.5,00.0,31.1,24.2,06.2,0000.0,0004.35,0006.76,0004.16
2023-02-16 14:04:00,,0827.0,4.99,0.00,22.5,23.1,00.0,31.1,24.4,06.1,0000.0,0004.31,0006.48,0004.12
2023-02-16 14:05:00,,0827.0,5.03,0.00,22.6,23.5,00.0,31.2,24.6,06.1,0000.0,0004.25,0005.75,0004.08
2023-02-16 14:06:00,,0826.9,5.03,0.00,22.6,22.7,00.0,31.2,24.4,06.1,0000.0,0004.19,0005.68,0004.02
2023-02-16 14:07:00,,0827.3,5.01,0.00,22.6,21.9,00.0,31.3,24.2,06.1,0000.0,0004.16,0005.94,0003.97
2023-02-16 14:08:00,,0827.0,4.97,0.00,22.5,21.2,00.0,31.3,24.1,06.1,0000.0,0004.14,0006.27,0003.91
2023-02-16 14:09:00,,0827.0,4.99,0.00,22.4,20.8,00.0,31.3,23.9,06.1,0000.0,0004.10,0006.26,0003.87
2023-02-16 14:10:00,,0826.8,4.98,0.00,22.3,20.3,00.0,31.3,23.7,06.2,0000.0,0004.05,0006.20,0003.80
2023-02-16 14:11:00,,0826.9,5.00,0.00,22.2,20.3,00.0,31.2,23.6,06.2,0000.0,0004.02,0006.70,0003.73
2023-02-16 14:12:00,,0826.9,5.00,0.00,22.2,21.4,00.0,31.2,23.9,06.3,0000.0,0003.97,0006.94,0003.67
2023-02-16 14:13:00,,0826.8,4.99,0.00,22.4,22.3,00.0,31.1,24.2,06.2,0000.0,0003.93,0006.87,0003.62
2023-02-16 14:14:00,,0826.9,5.02,0.00,22.5,23.1,00.0,31.1,24.4,06.2,0000.0,0003.88,0006.80,0003.58
2023-02-16 14:15:00,,0826.9,4.99,0.00,22.6,22.9,00.0,31.2,24.4,06.2,0000.0,0003.85,0006.80,0003.53
2023-02-16 14:16:00,,0826.8,4.97,0.00,22.5,21.9,00.0,31.2,24.1,06.2,0000.0,0003.83,0006.82,0003.49
2023-02-16 14:17:00,,0827.0,5.01,0.00,22.4,21.1,00.0,31.2,23.9,06.3,0000.0,0003.85,0006.99,0003.48
2023-02-16 14:18:00,,0826.8,5.01,0.00,22.3,20.4,00.0,31.2,23.6,06.3,0000.0,0003.82,0006.77,0003.46
2023-02-16 14:19:00,,0826.9,4.97,0.00,22.1,19.9,00.0,31.2,23.4,06.3,0000.0,0003.77,0006.28,0003.43
2023-02-16 14:20:00,,0826.9,5.01,0.00,22.1,20.5,00.0,31.1,23.5,06.4,0000.0,0003.72,0006.24,0003.38
2023-02-16 14:21:00,,0826.9,4.97,0.00,22.2,21.7,00.0,31.1,23.9,06.4,0000.0,0003.68,0006.23,0003.34
2023-02-16 14:22:00,,0827.0,5.03,0.00,22.3,22.6,00.0,31.1,24.1,06.4,0000.0,0003.64,0005.84,0003.32
2023-02-16 14:23:00,,0827.1,4.97,0.00,22.4,23.0,00.0,31.1,24.3,06.4,0000.0,0003.58,0005.31,0003.28
2023-02-16 14:24:00,,0827.0,5.00,0.00,22.4,22.2,00.0,31.2,24.1,06.5,0000.0,0003.55,0005.30,0003.24
2023-02-16 14:25:00,,0827.0,4.98,0.00,22.3,21.3,00.0,31.2,23.8,06.5,0000.0,0003.50,0005.14,0003.21
2023-02-16 14:26:00,,0827.0,5.00,0.00,22.2,20.7,00.0,31.2,23.6,06.6,0000.0,0003.46,0005.02,0003.18
2023-02-16 14:27:00,,0827.0,5.01,0.00,22.1,20.2,00.0,31.2,23.4,06.7,0000.0,0003.45,0005.04,0003.16
2023-02-16 14:28:00,,0827.4,5.01,0.00,22.0,19.8,00.0,31.1,23.2,06.8,0000.0,0003.42,0004.95,0003.14
2023-02-16 14:29:00,,0827.6,5.01,0.00,22.0,20.5,00.0,31.1,23.4,06.9,0000.0,0003.44,0005.16,0003.13
2023-02-16 14:30:00,,0827.6,5.00,0.00,22.1,21.7,00.0,31.0,23.8,06.9,0000.0,0003.45,0005.28,0003.12
2023-02-16 14:31:00,,0827.2,5.00,0.00,22.2,22.7,00.0,31.0,24.1,06.9,0000.0,0003.46,0005.28,0003.12
2023-02-16 14:32:00,,0827.1,5.02,0.00,22.3,22.7,00.0,31.1,24.1,06.9,0000.0,0003.50,0005.41,0003.12
2023-02-16 14:33:00,,0827.1,5.03,0.00,22.2,21.8,00.0,31.1,23.9,06.9,0000.0,0003.52,0005.49,0003.13
2023-02-16 14:34:00,,0827.2,4.99,0.00,22.1,21.0,00.0,31.1,23.5,07.0,0000.0,0003.55,0005.86,0003.16
2023-02-16 14:35:00,,0827.2,4.98,0.00,22.0,20.4,00.0,31.1,23.3,07.1,0000.0,0003.58,0005.97,0003.18
2023-02-16 14:36:00,,0827.3,5.03,0.00,21.9,20.0,00.0,31.0,23.2,07.1,0000.0,0003.59,0005.96,0003.21
2023-02-16 14:37:00,,0827.2,4.98,0.00,21.9,20.7,00.0,31.0,23.4,07.2,0000.0,0003.62,0006.02,0003.24
2023-02-16 14:38:00,,0827.2,4.99,0.00,22.0,22.0,00.0,30.9,23.7,07.1,0000.0,0003.65,0006.15,0003.28
2023-02-16 14:39:00,,0827.4,5.01,0.00,22.1,22.8,00.0,31.0,24.0,07.1,0000.0,0003.67,0006.20,0003.30
2023-02-16 14:40:00,,0827.3,5.01,0.00,22.2,22.1,00.0,31.0,23.9,07.0,0000.0,0003.64,0005.97,0003.30
2023-02-16 14:41:00,,0827.3,5.01,0.00,22.1,21.3,00.0,31.0,23.6,07.0,0000.0,0003.61,0005.79,0003.31
2023-02-16 14:42:00,,0827.3,5.00,0.00,21.9,20.6,00.0,31.0,23.3,06.9,0000.0,0003.63,0005.78,0003.32
2023-02-16 14:43:00,,0827.3,5.01,0.00,21.8,20.0,00.0,31.0,23.1,06.9,0000.0,0003.63,0005.74,0003.33
2023-02-16 14:44:00,,0827.3,5.02,0.00,21.7,19.9,00.0,30.9,23.0,06.9,0000.0,0003.60,0005.68,0003.32
2023-02-16 14:45:00,,0827.5,4.99,0.00,21.8,21.3,00.0,30.9,23.4,06.9,0000.0,0003.60,0005.41,0003.31
2023-02-16 14:46:00,,0827.4,4.98,0.00,22.0,22.5,00.0,30.9,23.8,06.8,0000.0,0003.60,0005.44,0003.28
2023-02-16 14:47:00,,0827.5,4.98,0.00,22.1,23.2,00.0,30.9,24.1,06.7,0000.0,0003.56,0005.51,0003.24
2023-02-16 14:48:00,,0827.4,5.00,0.00,22.1,22.4,00.0,31.0,23.9,06.6,0000.0,0003.54,0005.73,0003.21
2023-02-16 14:49:00,,0827.5,4.98,0.00,22.1,21.4,00.0,31.0,23.6,06.6,0000.0,0003.53,0006.10,0003.17
2023-02-16 14:50:00,,0827.4,4.99,0.00,22.0,20.6,00.0,31.0,23.4,06.6,0000.0,0003.48,0006.46,0003.13
2023-02-16 14:51:00,,0827.4,5.01,0.00,21.8,20.0,00.0,30.9,23.1,06.6,0000.0,0003.47,0007.36,0003.08
2023-02-16 14:52:00,,0827.4,4.98,0.00,21.7,19.7,00.0,30.9,22.9,06.6,0000.0,0003.46,0007.71,0003.02
2023-02-16 14:53:00,,0827.5,5.00,0.00,21.7,20.5,00.0,30.8,23.1,06.6,0000.0,0003.45,0007.78,0002.96
2023-02-16 14:54:00,,0827.6,4.95,0.00,21.8,21.7,00.0,30.8,23.5,06.5,0000.0,0003.44,0007.82,0002.89
2023-02-16 14:55:00,,0827.5,5.00,0.00,22.0,22.7,00.0,30.8,23.8,06.5,0000.0,0003.42,0007.84,0002.83
2023-02-16 14:56:00,,0827.5,4.96,0.00,22.0,22.1,00.0,30.9,23.8,06.4,0000.0,0003.38,0007.94,0002.77
2023-02-16 14:57:00,,0827.5,4.97,0.00,22.0,21.3,00.0,30.9,23.5,06.4,0000.0,0003.33,0008.21,0002.73
2023-02-16 14:58:00,,0827.6,4.99,0.00,21.9,20.6,00.0,30.9,23.3,06.4,0000.0,0003.31,0008.11,0002.69
2023-02-16 14:59:00,,0827.6,5.00,0.00,21.8,20.2,00.0,30.9,23.1,06.5,0000.0,0003.30,0008.11,0002.66
